RH
68 80 90 89 90 88 24 35 72 44 47 56 92 96 97 96 75 81 70 75 95 92 90 94 65 65 54 54 47 77 77 86 82 85 70 65 59 71 77 93 93 90 86 79
92 94 93 92 90 91 48 49 74 44 54 95 84 60 43 43 38 63 66 90 92 72 90 91 94 90 62 61 70 84 88 99 93 89 71 68 89 76 68 74 81 88 86 82
89 80 91 91 86 65 54 71 90 62 55 62 60 70 55 50 50 62 44 53 65 53 57 68 90 78 70 56 65 66 82 97 92 92 60 78 86 83 79 78 95 74 84 70
88 94 83 73 79 65 60 71 80 84 90 69 77 66 59 52 48 45 40 50 68 88 65 59 69 67 61 49 73 63 85 96 90 82 80 78 80 85 78 88 78 85 72 73
87 88 88 72 69 79 72 73 79 77 87 83 68 61 56 65 50 51 50 66 52 59 80 80 94 73 63 72 69 63 82 94 90 71 78 95 96 87 93 98 99 100 100 99
92 92 88 87 86 83 97 86 88 94 76 85 75 64 66 67 85 43 38 49 60 50 54 55 53 52 54 62 75 63 68 94 91 93 69 66 96 94 89 97 93 95 96 94
91 88 87 87 87 90 92 94 96 98 85 74 65 65 62 63 60 53 41 42 52 50 42 42 42 55 64 62 62 68 91 86 84 92 84 96 93 89 74 85 87 86 86 87
94 90 86 88 90 78 78 83 93 97 97 78 68 70 94 61 51 49 45 47 49 47 48 79 85 69 53 53 62 62 69 74 97 93 90 78 93 90 91 90 90 87 87 84
86 88 88 83 91 71 74 68 84 95 98 84 69 72 73 74 68 65 54 47 40 50 70 88 95 85 59 62 60 48 53 61 84 92 90 84 87 80 94 93 93 92 91 90
86 89 89 90 89 68 79 70 87 98 98 88 95 96 91 65 74 92 72 74 62 59 81 83 91 91 92 91 89 90 73 91 94 89 89 89 85 80 66 95 93 92 97 96
87 88 87 88 90 72 86 91 99 97 96 87 89 96 96 87 74 91 67 60 70 78 91 96 89 89 81 92 93 94 91 96 92 90 95 96 93 62 77 93 91 94 92 96
87 87 88 87 89 75 88 90 90 86 100 85 86 78 67 70 58 86 86 77 77 80 95 96 98 88 93 94 100 83 95 98 99 98 96 95 96 96 96 96 99 99 100 100
85 86 85 85 88 72 74 93 91 79 99 81 75 83 76 72 72 82 87 83 88 84 88 95 95 95 93 97 99 94 87 81 99 96 91 93 97 100 96 100 100 97 96 99
89 90 90 92 93 70 81 96 100 90 90 97 70 77 78 77 66 72 86 84 84 93 96 95 98 96 84 93 92 94 96 89 100 96 86 93 91 94 100 95 94 97 93 96
91 88 74 59 60 61 73 80 94 100 93 93 72 78 85 71 64 73 79 53 82 97 96 95 96 96 84 86 84 99 99 100 100 98 98 98 87 94 98 95 97 100 98 92
50 44 51 49 61 64 81 96 95 100 100 93 96 83 81 65 55 74 88 63 86 91 95 96 96 96 90 97 100 97 99 98 99 97 97 98 98 96 96 98 96 98 96 98
38 43 53 52 53 65 62 78 90 96 96 99 92 81 65 62 77 89 86 58 75 84 95 95 92 91 88 95 100 96 96 98 98 98 88 92 95 98 97 96 94 95 95 97
33 41 49 61 64 52 81 72 75 77 91 78 92 79 73 60 57 76 81 62 58 69 76 76 66 64 70 98 96 97 96 93 94 95 98 100 97 92 92 96 93 92 92 91
28 40 48 64 63 43 63 80 79 66 72 75 81 100 99 64 66 92 92 71 86 61 75 72 65 93 100 97 100 98 99 99 99 95 94 94 94 96 93 95 96 95 96 95
31 39 60 64 46 42 61 74 64 63 60 74 97 78 93 73 85 94 93 83 98 100 92 64 93 100 97 98 100 100 99 98 97 97 93 94 95 98 96 100 100 98 98 96
34 38 50 45 39 56 42 59 71 70 87 88 84 84 89 73 97 97 97 97 96 99 95 82 100 100 96 98 97 98 98 98 97 99 99 98 99 99 100 98 98 97 96 96
38 39 42 44 35 39 62 96 73 91 99 98 99 85 80 84 98 96 92 96 88 99 78 88 100 97 98 98 98 98 98 98 97 99 99 99 100 99 98 98 98 98 98 97
45 46 36 42 56 73 77 88 85 95 97 99 92 93 84 93 85 93 94 93 99 68 92 100 99 98 98 99 100 100 99 99 96 100 100 99 100 97 99 99 98 99 98 99
40 39 60 80 90 94 94 95 95 92 100 92 87 98 99 94 87 96 95 95 83 97 98 100 98 98 99 99 98 97 100 100 98 100 95 97 100 99 100 99 100 100 99 98
38 48 94 97 91 87 90 82 92 95 90 94 93 96 85 90 88 83 80 86 100 98 100 99 98 98 99 97 97 96 92 91 94 89 92 97 96 96 98 100 100 99 98 98
67 81 85 91 83 90 88 84 88 78 88 96 100 90 90 99 97 90 100 95 100 98 97 98 99 100 98 98 95 96 98 95 95 89 97 96 89 89 96 100 98 98 98 100
76 91 94 95 96 98 93 91 90 90 100 99 79 95 100 83 94 98 97 100 95 99 100 100 100 100 100 97 97 98 96 97 96 96 98 98 98 95 88 82 81 91 98 100
Wind_Speed
20 20 21 23 25 29 29 18 4 17 17 5 5 4 7 10 10 13 6 4 6 5 8 4 3 6 3 16 5 4 3 4 9 11 5 9 17 14 11 4 5 3 3 5
20 21 21 22 22 24 28 16 8 15 12 3 4 4 8 7 11 6 7 7 6 8 6 4 7 8 14 27 11 2 5 4 8 3 0 1 6 5 11 3 3 6 5 5
21 21 22 22 22 22 23 7 3 8 6 7 4 5 4 8 6 3 4 4 2 6 3 3 7 11 7 24 13 16 8 3 8 7 0 4 7 8 14 13 6 9 7 3
22 23 22 21 20 20 17 4 3 3 4 3 5 3 4 5 5 5 9 2 3 1 4 7 1 5 12 7 5 10 6 4 5 9 13 5 2 5 13 16 19 10 8 10
23 24 22 21 20 18 12 4 3 5 12 11 6 3 2 6 3 2 2 2 5 2 3 5 4 5 4 7 4 4 3 4 7 6 8 10 14 8 6 7 3 7 5 4
23 24 23 23 23 18 6 7 10 5 8 3 3 3 1 5 5 6 2 3 1 3 1 11 19 22 22 15 7 7 3 2 3 4 10 12 8 5 7 5 13 6 2 6
23 24 24 23 22 19 15 13 13 4 4 3 7 9 13 6 5 4 3 4 1 3 14 17 19 20 20 18 16 17 4 3 5 3 2 4 6 11 15 17 14 15 11 13
25 26 24 24 22 17 14 12 10 5 3 6 11 12 7 11 5 3 3 4 8 16 11 3 5 4 3 4 8 9 14 8 2 3 3 2 4 9 8 7 8 15 14 14
26 23 23 24 21 17 13 14 9 8 4 5 10 4 2 2 2 4 3 10 10 8 1 2 2 2 3 4 8 9 9 13 4 4 2 2 8 16 14 10 4 15 16 15
24 23 24 25 22 18 14 14 8 9 7 6 12 4 3 2 1 1 3 6 5 7 2 2 2 2 5 3 5 6 4 3 5 7 3 5 12 19 21 4 3 18 15 15
23 24 23 22 21 18 12 14 7 8 5 10 8 6 3 5 4 2 4 4 4 3 4 2 3 2 2 3 3 4 4 4 4 3 3 1 26 7 6 7 13 15 18 19
23 24 22 21 18 17 11 6 4 7 5 5 8 3 4 4 4 4 1 0 2 1 1 0 2 2 2 2 1 4 3 1 1 3 3 5 11 11 11 11 12 18 20 21
23 22 20 17 16 9 12 4 6 9 4 5 4 2 0 5 5 2 1 2 1 3 4 3 1 1 3 2 1 2 6 11 3 0 3 5 10 13 20 17 17 17 18 19
22 18 16 16 12 9 6 6 7 5 4 1 1 1 3 4 6 5 4 6 7 9 6 5 1 2 6 3 2 3 2 6 3 2 5 5 8 21 20 19 17 17 18 17
18 14 12 13 11 8 6 6 5 5 3 2 3 3 2 5 9 7 7 8 5 1 1 3 2 3 4 3 3 3 7 1 2 2 4 6 10 16 19 19 19 17 18 18
12 9 9 10 11 10 5 2 3 7 6 2 2 2 1 8 8 7 8 8 6 4 5 4 4 7 4 3 2 6 11 8 8 4 11 8 11 7 15 16 18 16 15 16
11 8 7 9 8 7 6 4 9 4 4 2 4 2 4 11 4 4 4 8 7 5 4 4 4 8 7 3 2 11 12 8 8 9 8 4 9 9 13 13 15 13 14 14
11 9 8 8 8 7 4 5 6 5 1 2 2 3 2 13 5 3 3 2 4 7 4 3 4 5 6 3 6 10 11 9 6 11 7 7 9 10 12 12 15 15 17 18
11 10 9 8 4 3 4 2 3 6 5 3 4 2 3 11 5 4 1 1 3 3 3 3 4 2 4 4 10 10 11 9 11 10 9 11 12 14 15 14 16 17 17 18
10 8 4 3 3 5 2 1 0 4 6 5 4 6 2 8 6 3 6 3 2 2 1 5 3 1 1 8 8 8 9 10 10 12 14 15 15 16 16 15 15 16 16 17
5 2 3 4 4 1 1 3 5 5 5 5 5 5 3 4 1 2 4 1 1 3 1 3 2 2 3 8 9 9 9 9 10 8 9 9 11 14 14 14 15 16 16 17
6 6 5 2 2 2 5 1 3 4 1 5 5 8 6 5 4 3 6 2 3 1 2 3 2 2 6 8 10 9 9 11 11 9 11 10 11 13 12 11 14 16 14 14
6 2 1 2 4 6 4 3 3 3 3 5 10 6 4 4 5 2 3 4 1 2 3 2 1 3 7 10 10 11 9 9 10 10 9 9 10 11 10 11 13 12 12 13
2 0 3 3 3 2 1 1 1 2 4 12 10 4 3 3 3 2 4 2 3 3 3 0 2 7 9 10 12 11 10 10 11 11 12 10 9 11 10 10 11 12 13 12
1 3 3 3 5 6 5 5 2 3 9 7 2 2 2 4 3 3 3 4 3 3 1 1 4 8 10 12 12 12 11 11 11 11 11 10 11 10 10 10 11 10 11 12
4 7 4 6 6 4 6 11 9 8 7 2 1 2 3 3 2 4 3 3 3 1 2 4 7 10 12 12 12 11 11 9 10 10 10 10 12 12 11 10 10 10 10 11
5 7 12 10 8 7 6 9 14 8 4 2 3 4 1 1 3 3 2 2 2 8 5 9 11 11 8 11 12 11 11 10 10 9 8 9 10 10 8 11 12 11 10 9
Wind_Direction
354 353 351 351 353 349 0 350 341 5 360 31 357 22 352 352 354 11 347 338 14 348 339 302 272 230 288 10 349 311 263 251 220 207 223 203 201 196 175 152 191 222 148 278
352 351 348 346 347 350 353 338 309 358 16 58 343 314 330 322 341 14 4 19 18 1 345 322 4 350 350 12 24 18 327 222 231 188 245 267 216 193 207 134 96 195 158 253
350 346 346 345 344 347 353 341 344 338 1 15 38 330 320 347 14 104 350 47 76 352 311 25 319 340 343 333 359 352 322 248 275 258 5 150 192 198 208 217 219 220 210 217
348 348 346 341 340 343 353 341 311 355 311 326 324 247 276 331 337 16 22 41 21 234 306 317 115 331 326 303 345 13 19 281 1 312 271 263 240 207 212 213 229 207 219 197
348 350 348 346 343 336 340 312 334 318 291 290 300 335 285 302 343 157 275 171 286 268 201 209 265 279 282 269 294 359 50 300 353 298 324 262 250 227 237 244 212 265 247 172
346 344 341 340 342 339 317 294 297 276 275 285 284 236 323 306 298 268 335 292 231 272 340 303 286 273 264 250 253 298 275 222 354 269 359 344 255 8 323 278 49 337 299 31
344 341 337 335 336 332 319 302 300 232 270 256 276 290 299 306 236 251 279 13 88 298 326 308 297 279 255 253 250 223 213 211 177 265 13 241 91 30 42 82 49 29 22 10
342 341 337 335 335 333 326 314 297 232 251 259 292 268 273 281 275 281 273 17 319 318 306 323 322 318 310 264 246 230 212 220 244 214 211 116 48 24 345 8 56 16 6 356
340 340 341 334 337 334 329 336 297 258 257 245 266 234 259 238 276 330 280 329 341 355 335 44 266 289 306 327 332 337 173 199 223 179 168 238 33 330 304 294 136 3 359 346
342 339 339 338 337 335 325 331 310 267 251 272 316 214 219 184 107 193 301 326 337 16 16 285 276 284 302 1 16 340 9 353 242 256 240 92 344 320 313 215 355 337 345 335
340 338 337 334 330 332 330 335 320 296 274 295 357 348 24 37 24 134 312 347 2 20 32 82 290 326 319 85 14 0 43 341 26 14 33 225 350 16 55 314 327 342 343 343
340 338 337 334 331 331 335 342 332 336 262 290 320 338 40 354 312 284 314 295 288 340 61 318 278 312 354 167 180 5 32 128 55 30 100 74 31 69 18 5 348 351 346 344
339 341 338 342 332 339 347 330 338 357 318 314 7 39 61 353 13 349 271 258 336 280 312 276 302 83 10 61 358 95 354 18 73 87 15 340 46 23 12 11 5 1 353 347
337 341 346 347 338 332 324 333 332 344 307 295 47 87 323 360 356 338 321 297 292 278 269 241 206 92 46 59 111 81 317 343 340 324 342 56 330 8 5 5 1 359 357 358
334 342 353 356 359 353 329 333 38 24 1 291 302 331 291 360 351 350 353 349 347 358 67 39 48 43 81 52 71 24 0 304 72 245 335 311 311 350 357 357 357 2 352 351
337 340 346 355 353 351 329 299 346 7 355 320 357 2 352 353 334 321 358 21 40 54 61 57 52 28 79 84 84 351 10 10 36 333 330 305 345 343 354 351 352 357 351 359
330 323 317 330 349 343 33 3 315 308 343 338 331 12 7 355 15 358 20 42 55 64 72 64 47 25 55 74 77 345 355 356 18 11 9 353 352 342 348 350 352 355 357 358
316 304 297 301 318 347 354 17 21 350 342 6 73 306 20 9 345 355 27 59 70 47 84 71 66 39 54 59 336 358 1 2 355 3 15 357 348 349 355 357 358 0 3 359
306 291 289 284 264 288 320 305 8 31 46 75 66 37 298 343 346 313 54 59 58 60 70 58 74 358 45 273 341 354 1 3 342 351 1 2 1 357 357 360 358 357 359 357
302 293 256 242 287 310 305 280 45 33 38 46 54 354 306 339 334 327 357 42 92 67 11 98 63 74 249 3 357 356 355 354 356 0 358 354 354 350 351 357 351 355 352 353
311 257 235 279 310 278 58 61 46 9 29 19 6 10 303 348 335 295 353 205 104 72 305 94 56 360 329 4 4 1 2 354 353 352 345 345 345 341 344 348 349 352 353 354
301 288 288 304 43 67 78 351 1 55 215 3 351 328 311 308 312 332 354 82 44 104 62 75 66 263 1 358 359 356 358 353 357 359 353 352 350 347 348 349 350 356 360 2
297 262 205 26 12 48 75 347 324 354 11 7 341 325 314 324 3 337 34 61 58 86 48 75 198 344 350 352 351 354 349 349 352 354 347 350 347 349 355 354 355 2 7 9
271 251 33 65 5 58 138 210 231 322 321 329 324 301 322 354 9 7 71 7 48 57 57 155 271 352 347 345 349 354 353 349 352 353 351 349 354 357 356 356 359 1 5 3
47 26 51 61 100 79 68 13 322 328 327 341 336 328 358 5 52 16 35 36 55 42 51 76 345 346 347 348 350 350 350 350 354 356 0 3 357 357 358 359 356 351 356 0
60 45 53 124 88 41 17 6 358 340 337 356 14 51 52 31 84 47 21 66 45 15 340 349 348 337 343 348 348 345 348 349 352 355 359 0 1 4 360 354 353 359 1 7
58 46 59 74 66 47 13 1 353 352 5 48 53 52 313 5 47 44 27 49 14 351 353 337 334 328 334 339 340 340 345 341 343 349 355 2 5 3 3 10 11 10 6 5